CW1662 Weather Reports


Display with metric or nautical units.
time (UTC)temp
F
wind
direction
speed
MPH
gust
MPH
rain 1hr
in
rain 24hr
in
rain mn
in
humidity
%
barometer
mb
20260903095337 75 61 3.0 13.0 0.00 0.16 0.00 91 1016.4
20260903094842 75 86 5.0 14.0 0.00 0.16 0.00 91 1016.9
20260903094326 75 342 7.0 16.0 0.00 0.16 0.00 92 1017.0
20260903093835 75 355 9.0 16.0 0.00 0.16 0.00 92 1016.7
20260903093339 75 344 6.0 10.0 0.00 0.16 0.00 92 1016.6
20260903092843 75 5 3.0 5.0 0.00 0.16 0.00 92 1016.2
20260903092326 75 355 2.0 3.0 0.00 0.16 0.00 92 1015.9
20260903091830 75 355 0.0 2.0 0.00 0.16 0.00 93 1015.7
20260903091353 75 355 1.0 2.0 0.00 0.16 0.00 93 1015.8
20260903090839 75 355 0.0 1.0 0.00 0.16 0.00 93 1015.8
20260903090327 74 355 0.0 3.0 0.00 0.16 0.00 93 1015.8
20260903085831 74 355 0.0 5.0 0.00 0.16 0.00 93 1015.9
20260903085333 74 11 2.0 5.0 0.00 0.16 0.00 93 1015.9
20260903084840 74 11 0.0 3.0 0.00 0.16 0.00 93 1015.9
20260903084332 74 355 2.0 3.0 0.00 0.16 0.00 93 1016.0
20260903083837 74 72 0.0 5.0 0.00 0.16 0.00 93 1015.9
20260903083341 74 5 2.0 5.0 0.00 0.16 0.00 93 1015.9
20260903082826 74 14 1.0 5.0 0.00 0.16 0.00 93 1015.8
20260903082328 74 11 3.0 9.0 0.00 0.16 0.00 93 1015.9
20260903081836 73 348 4.0 11.0 0.00 0.16 0.00 93 1015.7
20260903081340 73 9 6.0 11.0 0.00 0.16 0.00 93 1015.8
20260903080825 73 21 2.0 3.0 0.00 0.16 0.00 92 1015.4
20260903080330 73 21 1.0 2.0 0.00 0.16 0.00 92 1015.2
20260903075836 73 21 1.0 2.0 0.00 0.16 0.00 92 1015.0
20260903075327 73 21 0.0 0.0 0.00 0.16 0.00 92 1015.0
20260903074831 73 21 0.0 1.0 0.00 0.16 0.00 92 1015.0
20260903074336 73 21 0.0 1.0 0.00 0.16 0.00 92 1015.0
20260903073840 73 21 0.0 1.0 0.00 0.16 0.00 91 1015.1
20260903073327 74 21 0.0 0.0 0.00 0.16 0.00 91 1015.0
20260903072835 74 21 0.0 0.0 0.00 0.16 0.00 91 1015.0
20260903072338 74 21 0.0 0.0 0.00 0.16 0.00 91 1014.9
20260903071843 74 21 0.0 0.0 0.00 0.16 0.00 91 1015.0
20260903071327 74 21 0.0 0.0 0.00 0.16 0.00 91 1014.9
20260903070831 74 21 0.0 0.0 0.00 0.16 0.00 91 1014.9
20260903070339 74 21 0.0 0.0 0.00 0.16 0.00 91 1014.9
20260903065828 74 21 0.0 0.0 0.00 0.16 0.00 91 1015.0
20260903065334 74 21 0.0 1.0 0.00 0.16 0.00 91 1015.0
20260903064839 74 21 0.0 1.0 0.00 0.16 0.00 91 1015.1
20260903064323 74 21 0.0 3.0 0.00 0.16 0.00 91 1015.3
20260903063828 74 21 0.0 4.0 0.00 0.16 0.00 90 1015.4
20260903063333 74 16 2.0 4.0 0.00 0.16 0.00 91 1015.3
20260903062837 74 11 2.0 4.0 0.00 0.16 0.00 90 1015.2
20260903062320 74 28 1.0 5.0 0.00 0.16 0.00 90 1015.2
20260903061829 74 17 3.0 5.0 0.00 0.16 0.00 90 1015.1
20260903061333 75 32 2.0 5.0 0.00 0.16 0.00 90 1015.0
20260903060820 75 37 2.0 6.0 0.00 0.16 0.00 90 1015.0
20260903060328 75 9 2.0 6.0 0.00 0.16 0.00 90 1015.0
20260903055833 75 36 3.0 4.0 0.00 0.16 0.00 90 1015.0
20260903055335 75 50 2.0 4.0 0.00 0.16 0.00 89 1014.9
20260903054822 75 169 0.0 3.0 0.00 0.16 0.00 89 1014.8
20260903054328 75 169 2.0 3.0 0.00 0.16 0.00 89 1014.8
20260903053836 75 169 0.0 1.0 0.00 0.16 0.00 88 1014.7
20260903053323 75 169 0.0 1.0 0.00 0.16 0.00 88 1014.7
20260903052848 76 169 0.0 1.0 0.00 0.16 0.00 88 1014.6
20260903052350 76 169 0.0 0.0 0.00 0.16 0.00 87 1014.7
20260903051837 76 169 0.0 0.0 0.00 0.16 0.00 87 1014.7
20260903051326 76 169 0.0 0.0 0.00 0.16 0.00 86 1014.7
20260903050830 77 169 0.0 0.0 0.00 0.16 0.00 86 1014.6
20260903050335 77 169 0.0 0.0 0.00 0.16 0.00 85 1014.7
20260903045900 77 169 0.0 1.0 0.00 0.16 0.00 85 1014.8
20260903045342 78 169 0.0 3.0 0.00 0.16 0.00 85 1014.9
20260903044827 78 169 0.0 6.0 0.00 0.16 0.00 85 1014.9
20260903044350 78 191 2.0 6.0 0.00 0.16 0.00 85 1014.9
20260903043837 78 198 2.0 4.0 0.00 0.16 0.00 85 1014.9
20260903043342 78 198 1.0 5.0 0.00 0.16 0.00 85 1014.9
20260903042846 77 193 2.0 5.0 0.00 0.16 0.00 85 1014.9
20260903042329 77 199 2.0 4.0 0.00 0.16 0.00 86 1015.2
20260903041833 77 175 0.0 1.0 0.00 0.16 0.00 85 1015.4
20260903041338 77 175 0.0 2.0 0.00 0.16 0.00 85 1015.5
20260903040826 77 175 0.0 2.0 0.00 0.16 0.00 85 1015.6
20260903040331 78 175 0.0 2.0 0.00 0.16 0.00 85 1015.6
20260903035834 77 175 0.0 2.0 0.00 0.16 0.00 85 1015.7
20260903035338 77 175 0.0 3.0 0.00 0.16 0.16 85 1015.6
20260903034843 77 175 0.0 3.0 0.00 0.16 0.16 85 1015.6
20260903034327 77 175 1.0 3.0 0.00 0.16 0.16 85 1015.6
20260903033830 77 175 2.0 3.0 0.00 0.16 0.16 86 1015.8
20260903033337 77 136 0.0 2.0 0.00 0.16 0.16 86 1015.6
20260903032825 76 136 1.0 2.0 0.00 0.16 0.16 87 1015.8
20260903032328 76 136 0.0 1.0 0.00 0.16 0.16 86 1015.7
20260903031832 76 136 0.0 1.0 0.00 0.16 0.16 86 1015.9
20260903031343 76 136 0.0 1.0 0.00 0.16 0.16 87 1015.8
20260903030828 76 136 0.0 2.0 0.00 0.16 0.16 87 1015.6
20260903030332 76 136 0.0 2.0 0.00 0.16 0.16 87 1015.6
20260903025837 76 136 0.0 1.0 0.00 0.16 0.16 87 1015.4
20260903025341 76 136 0.0 1.0 0.00 0.16 0.16 87 1015.3
20260903024825 76 136 0.0 2.0 0.00 0.16 0.16 87 1015.2
20260903024330 76 136 0.0 2.0 0.00 0.16 0.16 87 1015.3
20260903023834 76 136 0.0 1.0 0.00 0.16 0.16 87 1015.1
20260903023359 76 136 0.0 1.0 0.00 0.16 0.16 87 1015.2
20260903022826 76 136 0.0 2.0 0.00 0.16 0.16 87 1015.2
20260903022329 76 136 0.0 3.0 0.00 0.16 0.16 87 1015.4
20260903021838 77 136 0.0 3.0 0.00 0.16 0.16 87 1015.2
20260903021342 77 136 0.0 2.0 0.00 0.16 0.16 86 1015.4
20260903020825 77 136 0.0 2.0 0.00 0.16 0.16 86 1015.3
20260903020332 77 119 0.0 2.0 0.00 0.16 0.16 86 1015.4
20260903015900 77 119 0.0 2.0 0.00 0.16 0.16 86 1015.6
20260903015343 77 119 1.0 3.0 0.00 0.16 0.16 86 1015.6
20260903014847 77 173 0.0 3.0 0.00 0.16 0.16 86 1016.0
20260903014330 77 113 0.0 4.0 0.00 0.16 0.16 86 1016.0
20260903013838 77 113 1.0 4.0 0.00 0.16 0.16 86 1016.0
20260903013343 77 101 0.0 3.0 0.00 0.16 0.16 85 1015.8
20260903012828 77 115 0.0 0.0 0.00 0.16 0.16 85 1015.6
20260903012331 77 115 0.0 0.0 0.00 0.16 0.16 85 1015.6
20260903011839 77 147 0.0 0.0 0.00 0.16 0.16 84 1015.7
20260903011324 78 147 0.0 0.0 0.00 0.16 0.16 84 1015.6
20260903010829 78 147 0.0 0.0 0.00 0.16 0.16 84 1015.5
20260903010333 78 147 0.0 0.0 0.00 0.16 0.16 84 1015.6
20260903005838 78 147 0.0 1.0 0.00 0.16 0.16 84 1015.4
20260903005341 78 147 0.0 1.0 0.00 0.16 0.16 83 1015.2
20260903004826 78 191 0.0 0.0 0.00 0.16 0.16 83 1015.2
20260903004350 78 191 0.0 0.0 0.00 0.16 0.16 82 1015.3
20260903003854 79 191 0.0 0.0 0.00 0.16 0.16 82 1015.4
20260903003338 79 191 0.0 0.0 0.00 0.16 0.16 81 1015.4
20260903002842 79 191 0.0 0.0 0.00 0.16 0.16 81 1015.4
20260903002326 80 190 0.0 0.0 0.00 0.16 0.16 80 1015.4
20260903001835 80 191 0.0 4.0 0.00 0.16 0.16 79 1015.6
20260903001339 80 191 1.0 4.0 0.00 0.16 0.16 78 1015.7
20260903000844 80 162 1.0 5.0 0.00 0.16 0.16 78 1015.5
20260903000328 80 205 3.0 5.0 0.00 0.16 0.16 77 1015.8
20260902235831 80 198 1.0 5.0 0.00 0.16 0.16 76 1016.0
20260902235358 80 187 2.0 5.0 0.00 0.16 0.16 77 1015.8
20260902234842 81 188 3.0 5.0 0.00 0.16 0.16 76 1016.1
20260902234326 81 191 3.0 5.0 0.00 0.16 0.16 76 1016.3
20260902233831 81 186 2.0 4.0 0.00 0.16 0.16 76 1016.4
20260902232856 82 172 2.0 6.0 0.00 0.16 0.16 74 1016.3
20260902232338 82 185 2.0 7.0 0.00 0.16 0.16 73 1016.2
20260902231830 82 161 4.0 7.0 0.00 0.16 0.16 73 1015.8
20260902231334 82 209 4.0 9.0 0.00 0.16 0.16 73 1015.9
20260902230821 82 196 4.0 9.0 0.00 0.16 0.16 75 1016.1
20260902230329 82 193 3.0 6.0 0.00 0.16 0.16 75 1016.3
20260902225833 83 192 3.0 7.0 0.00 0.16 0.16 75 1016.0
20260902225336 83 192 4.0 9.0 0.00 0.16 0.16 74 1016.0
20260902224843 83 188 3.0 9.0 0.00 0.16 0.16 74 1016.0
20260902223341 84 195 3.0 6.0 0.00 0.16 0.16 75 1015.5
20260902222846 84 247 3.0 8.0 0.00 0.16 0.16 76 1015.6
20260902222330 85 192 4.0 8.0 0.00 0.16 0.16 75 1015.7
20260902221837 85 200 3.0 7.0 0.00 0.16 0.16 76 1015.6
20260902221329 85 216 5.0 7.0 0.00 0.16 0.16 75 1015.7
20260902220833 85 199 3.0 6.0 0.00 0.16 0.16 74 1015.6
20260902220338 85 173 3.0 7.0 0.00 0.16 0.16 75 1015.6
20260902215842 85 192 4.0 7.0 0.00 0.16 0.16 75 1015.5
20260902215326 86 194 2.0 9.0 0.00 0.16 0.16 74 1015.6
20260902214830 86 191 3.0 9.0 0.00 0.16 0.16 74 1015.8
20260902214355 86 190 4.0 6.0 0.00 0.16 0.16 73 1015.7
20260902213838 86 198 3.0 5.0 0.00 0.16 0.16 72 1015.7
20260902213323 86 165 1.0 4.0 0.00 0.16 0.16 73 1015.7
20260902212831 86 183 1.0 5.0 0.00 0.16 0.16 74 1015.7
20260902212334 86 198 2.0 5.0 0.00 0.16 0.16 73 1015.7
20260902211839 86 186 3.0 5.0 0.00 0.16 0.16 72 1015.7
20260902211327 87 218 3.0 5.0 0.00 0.16 0.16 73 1015.8
20260902210834 87 203 1.0 5.0 0.00 0.16 0.16 72 1015.8
20260902210401 87 269 2.0 3.0 0.00 0.16 0.16 72 1015.7
20260902205825 87 269 2.0 3.0 0.00 0.16 0.16 72 1015.9
20260902205329 87 242 1.0 4.0 0.00 0.16 0.16 71 1015.9
20260902204833 87 165 1.0 4.0 0.00 0.16 0.16 72 1016.0
20260902204338 87 196 1.0 3.0 0.00 0.16 0.16 71 1016.1
20260902203843 87 196 0.0 4.0 0.00 0.16 0.16 72 1016.1
20260902203327 87 196 2.0 4.0 0.00 0.16 0.16 73 1016.0
20260902202830 87 196 2.0 3.0 0.00 0.16 0.16 73 1015.9
20260902202337 87 196 0.0 3.0 0.00 0.16 0.16 74 1015.9
20260902201826 86 196 0.0 3.0 0.00 0.16 0.16 74 1016.1
20260902201330 86 196 1.0 5.0 0.00 0.16 0.16 74 1016.2
20260902200835 85 196 0.0 5.0 0.00 0.16 0.16 74 1016.3
20260902200339 85 204 2.0 5.0 0.00 0.16 0.16 76 1016.4
20260902195844 85 211 1.0 5.0 0.00 0.16 0.16 75 1016.5
20260902195328 85 269 1.0 3.0 0.00 0.16 0.16 76 1016.4
20260902194832 85 186 2.0 3.0 0.00 0.16 0.16 78 1016.3
20260902194336 84 252 2.0 3.0 0.00 0.16 0.16 78 1016.3
20260902193823 84 184 0.0 5.0 0.00 0.16 0.16 78 1016.1
20260902193350 83 274 1.0 6.0 0.00 0.16 0.16 78 1016.0
20260902192857 83 327 4.0 6.0 0.00 0.16 0.16 78 1016.0
20260902192324 83 166 0.0 2.0 0.00 0.16 0.16 78 1016.1
20260902191828 82 166 0.0 3.0 0.00 0.16 0.16 80 1016.4
20260902191333 82 166 1.0 3.0 0.00 0.16 0.16 80 1016.4
20260902190837 81 112 0.0 3.0 0.00 0.16 0.16 80 1016.7
20260902190342 81 112 1.0 3.0 0.00 0.16 0.16 80 1016.8
20260902185827 81 112 0.0 2.0 0.01 0.16 0.16 80 1016.9
20260902185329 81 112 0.0 2.0 0.01 0.16 0.16 80 1017.1
20260902184836 81 112 0.0 2.0 0.01 0.16 0.16 81 1017.2
20260902184343 81 112 1.0 3.0 0.01 0.16 0.16 81 1016.9
20260902183828 81 106 1.0 3.0 0.01 0.16 0.16 80 1017.0
20260902183332 82 126 2.0 3.0 0.01 0.16 0.16 80 1017.0
20260902182841 82 86 1.0 4.0 0.01 0.16 0.16 80 1016.9
20260902182323 82 62 2.0 7.0 0.01 0.16 0.16 78 1016.9
20260902181831 81 112 1.0 7.0 0.01 0.16 0.16 81 1016.7
20260902181336 81 5 4.0 6.0 0.01 0.16 0.16 82 1016.7
20260902180840 80 355 3.0 9.0 0.01 0.16 0.16 84 1016.8
20260902180324 79 10 4.0 9.0 0.01 0.16 0.16 85 1016.7
20260902175833 79 350 2.0 6.0 0.00 0.15 0.15 87 1016.6
20260902175336 78 63 1.0 4.0 0.00 0.15 0.15 88 1017.0
20260902174841 77 340 1.0 2.0 0.00 0.15 0.15 90 1017.3
20260902174325 76 340 0.0 0.0 0.00 0.15 0.15 89 1017.4
20260902173833 76 112 0.0 1.0 0.01 0.15 0.15 89 1017.6
20260902173340 76 112 0.0 1.0 0.07 0.15 0.15 90 1017.3
20260902172825 76 57 0.0 3.0 0.10 0.15 0.15 90 1017.4
20260902172348 76 57 1.0 5.0 0.15 0.15 0.15 90 1017.5
20260902171832 76 16 1.0 5.0 0.15 0.15 0.15 91 1018.0
20260902171337 76 28 0.0 5.0 0.15 0.15 0.15 91 1018.3
20260902170841 75 69 1.0 7.0 0.15 0.15 0.15 91 1018.6
20260902170326 75 131 3.0 7.0 0.15 0.15 0.15 91 1018.4
20260902165830 75 90 2.0 5.0 0.15 0.15 0.15 91 1018.6
20260902165334 75 27 1.0 4.0 0.15 0.15 0.15 91 1018.7
20260902164838 74 360 1.0 3.0 0.15 0.15 0.15 91 1018.9
20260902164327 74 76 2.0 7.0 0.15 0.15 0.15 90 1018.5
20260902163855 74 73 1.0 14.0 0.15 0.15 0.15 89 1018.8
20260902163338 74 36 6.0 20.0 0.08 0.08 0.08 89 1019.1
20260902162843 74 344 10.0 24.0 0.05 0.05 0.05 87 1019.3
20260902162326 76 355 12.0 36.0 0.00 0.00 0.00 83 1020.0
20260902161831 81 14 16.0 36.0 0.00 0.00 0.00 71 1019.6
20260902161336 85 24 14.0 23.0 0.00 0.00 0.00 70 1019.5
20260902160840 87 346 5.0 7.0 0.00 0.00 0.00 75 1018.6
20260902160325 87 5 3.0 5.0 0.00 0.00 0.00 75 1018.4
20260902155829 87 324 2.0 3.0 0.00 0.00 0.00 72 1018.0
20260902155353 88 241 2.0 3.0 0.00 0.00 0.00 73 1017.9
20260902154836 88 241 0.0 3.0 0.00 0.00 0.00 75 1017.8
20260902154325 88 241 1.0 3.0 0.00 0.00 0.00 73 1017.7
20260902153849 88 191 1.0 2.0 0.00 0.00 0.00 74 1017.6
20260902153332 88 191 1.0 2.0 0.00 0.00 0.00 72 1017.4
20260902152838 88 258 0.0 3.0 0.00 0.00 0.00 73 1017.3
20260902152325 88 218 0.0 3.0 0.00 0.00 0.00 73 1017.3
20260902151830 87 218 0.0 4.0 0.00 0.00 0.00 74 1017.2
20260902151334 87 218 0.0 4.0 0.00 0.00 0.00 75 1017.0
20260902150839 87 236 2.0 4.0 0.00 0.00 0.00 74 1017.0
20260902150344 87 236 0.0 4.0 0.00 0.00 0.00 75 1017.0
20260902145828 87 236 2.0 4.0 0.00 0.00 0.00 71 1017.0
20260902145352 87 201 2.0 4.0 0.00 0.00 0.00 75 1016.9
20260902144835 87 201 1.0 3.0 0.00 0.00 0.00 75 1017.1
20260902144324 86 201 0.0 3.0 0.00 0.00 0.00 73 1016.9
20260902143828 86 201 1.0 4.0 0.00 0.00 0.00 75 1016.9
20260902143353 86 201 1.0 4.0 0.00 0.00 0.00 74 1016.8
20260902142836 86 201 0.0 3.0 0.00 0.00 0.00 75 1017.0
20260902142403 86 201 1.0 4.0 0.00 0.00 0.00 74 1017.0
20260902141826 85 201 1.0 5.0 0.00 0.00 0.00 74 1016.9
20260902141331 85 201 1.0 5.0 0.00 0.00 0.00 74 1017.0
20260902140836 85 196 1.0 4.0 0.00 0.00 0.00 76 1017.1
20260902140340 85 196 1.0 3.0 0.00 0.00 0.00 76 1016.9
20260902135825 84 196 0.0 3.0 0.00 0.00 0.00 78 1016.9
20260902135328 84 196 1.0 3.0 0.00 0.00 0.00 80 1017.0
20260902134832 83 196 1.0 4.0 0.00 0.00 0.00 79 1016.8
20260902134325 83 196 2.0 4.0 0.00 0.00 0.00 78 1017.0
20260902133829 83 196 0.0 3.0 0.00 0.00 0.00 80 1016.9
20260902133337 83 196 1.0 3.0 0.00 0.00 0.00 80 1016.9
20260902132901 82 196 1.0 4.0 0.00 0.00 0.00 80 1017.0
20260902132324 82 196 3.0 4.0 0.00 0.00 0.00 81 1017.1
20260902131827 82 196 0.0 3.0 0.00 0.00 0.00 82 1017.2
20260902131335 82 196 2.0 3.0 0.00 0.00 0.00 81 1017.2
20260902130840 82 196 1.0 4.0 0.00 0.00 0.00 82 1017.1
20260902130324 82 196 2.0 4.0 0.00 0.00 0.00 82 1017.1
20260902125849 81 196 1.0 3.0 0.00 0.00 0.00 82 1017.1
20260902125331 81 196 0.0 3.0 0.00 0.00 0.00 83 1017.2
20260902124856 81 196 0.0 3.0 0.00 0.00 0.00 84 1017.1
20260902124400 80 196 1.0 3.0 0.00 0.00 0.00 85 1017.0
20260902123843 80 196 2.0 3.0 0.00 0.00 0.00 84 1016.9
20260902123330 80 196 0.0 4.0 0.00 0.00 0.00 85 1016.8
20260902122838 79 196 2.0 3.0 0.00 0.00 0.00 85 1016.6
20260902122342 79 196 2.0 3.0 0.00 0.00 0.00 86 1016.6
20260902121825 78 196 1.0 3.0 0.00 0.00 0.00 87 1016.6
20260902121331 78 196 2.0 3.0 0.00 0.00 0.00 88 1016.6
20260902120838 77 198 1.0 3.0 0.00 0.00 0.00 90 1016.6
20260902120346 77 102 0.0 0.0 0.00 0.00 0.00 90 1016.6
20260902115849 76 102 0.0 1.0 0.00 0.00 0.00 90 1016.7
20260902115332 76 102 0.0 1.0 0.00 0.00 0.00 91 1016.6
20260902114837 76 102 0.0 2.0 0.00 0.00 0.00 91 1016.3
20260902114341 76 102 1.0 2.0 0.00 0.01 0.00 91 1016.3
20260902113826 75 102 0.0 1.0 0.00 0.01 0.00 92 1016.3
20260902113334 75 102 0.0 2.0 0.00 0.01 0.00 92 1016.5
20260902112839 75 102 1.0 2.0 0.00 0.01 0.00 92 1016.5
20260902112342 75 102 0.0 1.0 0.00 0.01 0.00 92 1016.3
20260902111847 75 102 0.0 3.0 0.00 0.01 0.00 92 1016.4
20260902111331 74 102 0.0 3.0 0.00 0.01 0.00 92 1016.1
20260902110855 74 355 0.0 2.0 0.00 0.01 0.00 92 1016.1
20260902110339 74 355 1.0 2.0 0.00 0.01 0.00 92 1016.2
20260902105843 74 355 0.0 1.0 0.00 0.01 0.00 92 1016.2
20260902105327 74 355 0.0 1.0 0.00 0.01 0.00 92 1016.3
20260902104831 74 355 0.0 1.0 0.00 0.01 0.00 92 1016.3
20260902104359 74 355 0.0 1.0 0.00 0.01 0.00 92 1016.3
20260902103826 74 355 0.0 1.0 0.00 0.01 0.00 92 1016.3
20260902103330 74 355 0.0 2.0 0.00 0.01 0.00 91 1016.5
20260902102839 74 355 0.0 2.0 0.00 0.01 0.00 90 1016.6
20260902102322 74 355 0.0 1.0 0.00 0.01 0.00 90 1016.8
20260902101849 75 355 0.0 1.0 0.00 0.01 0.00 91 1016.7
20260902101335 75 355 0.0 0.0 0.00 0.01 0.00 91 1016.5
20260902100843 75 355 0.0 0.0 0.00 0.01 0.00 91 1016.5
20260902100348 75 355 0.0 0.0 0.00 0.01 0.00 90 1016.5
20260902095831 75 355 0.0 0.0 0.00 0.01 0.00 90 1016.5